Holy Cross, AK

2:28 AM AKST on February 22, 2017 (GMT -0900)
Holy Cross AP, Holy Cross, AK

Weather History for PAHC - April, 2014

Change the Weather History Date:

Monday, April 28, 2014

  Actual Average (PANV) Record (PANV)
Temperature  
Mean Temperature 46 °F -  
Max Temperature 61 °F 38 °F 60 °F (2014)
Min Temperature 31 °F 27 °F 10 °F (2008)
Degree Days  
Heating Degree Days 19    
Moisture  
Dew Point 28 °F    
Average Humidity 47    
Maximum Humidity 82    
Minimum Humidity 26    
Precipitation  
Precipitation 0.00 in - - ()
Sea Level Pressure  
Sea Level Pressure 29.72 in    
Wind  
Wind Speed 7 mph (WSW)    
Max Wind Speed 14 mph    
Max Gust Speed 21 mph    
Visibility 10 miles    
Events Rain    
Averages and records for this station are not official NWS values.
T = Trace of Precipitation, MM = Missing Value Source: NWS Daily Summary

Daily Weather History Graph

Daily Weather History Graph

Search for Another Location

Airport or City:

Trip Planner

Search our weather history database for the weather conditions in past years. The results will help you decide how hot, cold, wet, or windy it might be!

Date:

Astronomy

Apr. 28, 2014 Rise Set
Actual Time 6:32 AM AKDT 10:42 PM AKDT
Civil Twilight 5:34 AM AKDT 11:40 PM AKDT
Nautical Twilight 3:56 AM AKDT 1:23 AM AKDT
Astronomical Twilight Sun does not rise Sun does not rise
Moon 6:36 AM AKDT (4/28) 10:25 PM AKDT (4/28)
Length of Visible Light 18h 05m
Length of Day
16h 09m
Waning Crescent, 0% of the Moon is Illuminated
Apr 28
Waning Crescent
Apr 28
New
May 6
First Quarter
May 14
Full
May 21
Last Quarter

Hourly Weather History & Observations

Time (AKDT) Temp. Windchill Dew Point Humidity Pressure Visibility Wind Dir Wind Speed Gust Speed Precip Events Conditions
12:56 AM 48.2 °F - 26.6 °F 43% 29.54 in 10.0 mi NW 9.2 mph 17.3 mph N/A Rain Light Rain
1:56 AM 46.9 °F - 27.1 °F 46% 29.57 in 10.0 mi NNW 12.7 mph 18.4 mph 0.00 in Rain Light Rain
2:56 AM 46.9 °F - 27.1 °F 46% 29.59 in 10.0 mi NNW 13.8 mph 19.6 mph 0.00 in Rain Light Rain
3:56 AM 45.9 °F 40.0 °F 27.1 °F 48% 29.60 in 10.0 mi NNW 12.7 mph - 0.00 in Rain Light Rain
4:56 AM 41.9 °F - 27.1 °F 56% 29.62 in 10.0 mi Calm Calm - 0.00 in Rain Light Rain
5:56 AM 34.9 °F - 26.1 °F 70% 29.65 in 10.0 mi Calm Calm - 0.00 in Rain Light Rain
6:56 AM 31.1 °F - 26.1 °F 82% 29.68 in 10.0 mi Calm Calm - 0.00 in   Clear
7:56 AM 34.9 °F - 28.0 °F 76% 29.69 in 10.0 mi Calm Calm - 0.00 in Rain Light Rain
8:56 AM 39.9 °F - 28.0 °F 63% 29.71 in 10.0 mi Calm Calm - 0.00 in Rain Light Rain
9:56 AM 45.0 °F - 30.0 °F 56% 29.72 in 10.0 mi Calm Calm - 0.00 in Rain Light Rain
10:56 AM 48.9 °F - 30.0 °F 48% 29.73 in 10.0 mi Calm Calm - 0.00 in Rain Light Rain
11:56 AM 52.9 °F - 31.1 °F 43% 29.74 in 10.0 mi Calm Calm - 0.00 in Rain Light Rain
12:56 PM 55.9 °F - 30.0 °F 37% 29.74 in 10.0 mi Variable 5.8 mph - 0.00 in Rain Light Rain
1:56 PM 57.9 °F - 28.0 °F 32% 29.75 in 10.0 mi Calm Calm - 0.00 in Rain Light Rain
2:56 PM 59.9 °F - 29.1 °F 31% 29.75 in 10.0 mi South 6.9 mph - 0.00 in Rain Light Rain
3:56 PM 59.9 °F - 27.1 °F 29% 29.77 in 10.0 mi SW 9.2 mph - 0.00 in Rain Light Rain
4:56 PM 61.0 °F - 26.1 °F 26% 29.77 in 10.0 mi SSW 8.1 mph 16.1 mph 0.00 in Rain Light Rain
5:56 PM 59.0 °F - 25.2 °F 27% 29.78 in 10.0 mi WSW 11.5 mph 19.6 mph 0.00 in Rain Light Rain
6:56 PM 59.0 °F - 28.4 °F 31% 29.78 in 10.0 mi SW 13.8 mph 20.7 mph N/A Rain Light Rain
7:56 PM 55.9 °F - 28.0 °F 34% 29.79 in 10.0 mi SSW 9.2 mph - 0.00 in Rain Light Rain
8:56 PM 52.9 °F - 31.1 °F 43% 29.81 in 10.0 mi SW 10.4 mph 17.3 mph 0.00 in Rain Light Rain
9:56 PM 48.9 °F - 29.1 °F 46% 29.82 in 10.0 mi SW 8.1 mph - 0.00 in Rain Light Rain
10:56 PM 45.0 °F 41.8 °F 29.1 °F 54% 29.85 in 10.0 mi WSW 5.8 mph - 0.00 in Rain Light Rain
11:56 PM 43.9 °F 39.9 °F 27.1 °F 52% 29.88 in 10.0 mi SSW 6.9 mph - 0.00 in Rain Light Rain